Time,TemperatureF,DewpointF,PressureIn,WindDirection,WindDirectionDegrees,WindSpeedMPH,WindSpeedGustMPH,Humidity,HourlyPrecipIn,Conditions,Clouds,dailyrainin,SoftwareType,DateUTC
2013-04-15 00:07:00,54.8,47.0,29.82,East,98,4.0,9.0,74,0.00,,,0.00,weatherlink.com 1.10,2013-04-15 04:07:00,
2013-04-15 00:22:00,54.7,46.0,29.82,ENE,68,1.0,8.0,73,0.00,,,0.00,weatherlink.com 1.10,2013-04-15 04:22:00,
2013-04-15 00:38:00,54.9,46.0,29.81,NE,46,3.0,5.0,72,0.00,,,0.00,weatherlink.com 1.10,2013-04-15 04:38:00,
2013-04-15 00:53:00,54.6,46.0,29.81,East,86,0.0,8.0,73,0.00,,,0.00,weatherlink.com 1.10,2013-04-15 04:53:00,
2013-04-15 01:08:00,53.8,46.0,29.82,SE,141,4.0,7.0,74,0.00,,,0.00,weatherlink.com 1.10,2013-04-15 05:08:00,
2013-04-15 01:23:00,54.0,46.0,29.82,SE,136,3.0,8.0,74,0.00,,,0.00,weatherlink.com 1.10,2013-04-15 05:23:00,
2013-04-15 01:38:00,53.8,46.0,29.82,ESE,115,5.0,7.0,74,0.00,,,0.00,weatherlink.com 1.10,2013-04-15 05:38:00,
2013-04-15 01:53:00,54.3,46.0,29.82,SE,129,5.0,10.0,73,0.00,,,0.00,weatherlink.com 1.10,2013-04-15 05:53:00,
2013-04-15 02:08:00,54.3,46.0,29.82,SE,129,3.0,6.0,73,0.00,,,0.00,weatherlink.com 1.10,2013-04-15 06:08:00,
2013-04-15 02:23:00,54.2,46.0,29.82,SE,125,4.0,8.0,73,0.00,,,0.00,weatherlink.com 1.10,2013-04-15 06:23:00,
2013-04-15 02:38:00,53.9,45.0,29.82,SE,139,4.0,6.0,73,0.00,,,0.00,weatherlink.com 1.10,2013-04-15 06:38:00,
2013-04-15 02:53:00,54.3,45.0,29.82,SE,130,4.0,7.0,72,0.00,,,0.00,weatherlink.com 1.10,2013-04-15 06:53:00,
2013-04-15 03:53:00,55.3,46.0,29.86,South,181,6.0,10.0,71,0.00,,,0.00,weatherlink.com 1.10,2013-04-15 07:53:00,
2013-04-15 04:23:00,55.3,46.0,29.87,SSW,203,4.0,8.0,72,0.00,,,0.00,weatherlink.com 1.10,2013-04-15 08:23:00,
2013-04-15 04:38:00,55.1,46.0,29.88,South,174,4.0,8.0,72,0.00,,,0.00,weatherlink.com 1.10,2013-04-15 08:38:00,
2013-04-15 04:53:00,54.9,46.0,29.88,SSW,198,6.0,12.0,73,0.00,,,0.00,weatherlink.com 1.10,2013-04-15 08:53:00,
2013-04-15 05:08:00,55.8,47.0,29.88,SSW,201,6.0,14.0,72,0.00,,,0.00,weatherlink.com 1.10,2013-04-15 09:08:00,
2013-04-15 05:23:00,55.9,47.0,29.87,South,188,7.0,14.0,72,0.00,,,0.00,weatherlink.com 1.10,2013-04-15 09:23:00,
2013-04-15 05:38:00,56.2,47.0,29.87,South,171,3.0,12.0,72,0.00,,,0.00,weatherlink.com 1.10,2013-04-15 09:38:00,
2013-04-15 05:53:00,56.2,47.0,29.86,SSE,163,4.0,10.0,72,0.00,,,0.00,weatherlink.com 1.10,2013-04-15 09:53:00,
2013-04-15 06:08:00,55.9,47.0,29.86,South,176,4.0,10.0,72,0.00,,,0.00,weatherlink.com 1.10,2013-04-15 10:08:00,
2013-04-15 06:23:00,55.8,47.0,29.85,SSE,166,7.0,10.0,72,0.00,,,0.00,weatherlink.com 1.10,2013-04-15 10:23:00,
2013-04-15 06:38:00,55.6,47.0,29.85,ESE,111,4.0,10.0,73,0.00,,,0.00,weatherlink.com 1.10,2013-04-15 10:38:00,
2013-04-15 06:53:00,54.5,47.0,29.85,ESE,122,4.0,8.0,75,0.00,,,0.00,weatherlink.com 1.10,2013-04-15 10:53:00,
2013-04-15 07:08:00,53.6,47.0,29.85,ESE,118,5.0,7.0,77,0.00,,,0.00,weatherlink.com 1.10,2013-04-15 11:08:00,
2013-04-15 07:24:00,53.1,46.0,29.85,SSE,148,8.0,8.0,78,0.00,,,0.00,weatherlink.com 1.10,2013-04-15 11:24:00,
2013-04-15 07:39:00,52.9,47.0,29.86,SE,125,5.0,8.0,79,0.00,,,0.00,weatherlink.com 1.10,2013-04-15 11:39:00,
2013-04-15 07:54:00,52.9,47.0,29.88,South,176,4.0,9.0,80,0.00,,,0.00,weatherlink.com 1.10,2013-04-15 11:54:00,
2013-04-15 08:10:00,53.2,47.0,29.89,ESE,114,4.0,7.0,80,0.00,,,0.00,weatherlink.com 1.10,2013-04-15 12:10:00,
2013-04-15 08:23:00,54.3,48.0,29.89,SSE,155,6.0,12.0,79,0.00,,,0.00,weatherlink.com 1.10,2013-04-15 12:23:00,
2013-04-15 08:38:00,55.5,48.0,29.90,SSE,155,5.0,12.0,77,0.00,,,0.00,weatherlink.com 1.10,2013-04-15 12:38:00,
2013-04-15 09:08:00,56.9,49.0,29.90,SE,145,11.0,15.0,76,0.00,,,0.00,weatherlink.com 1.10,2013-04-15 13:08:00,
2013-04-15 09:23:00,57.5,50.0,29.90,SSE,167,9.0,14.0,75,0.00,,,0.00,weatherlink.com 1.10,2013-04-15 13:23:00,
2013-04-15 09:38:00,58.5,50.0,29.89,SSW,198,9.0,16.0,74,0.00,,,0.00,weatherlink.com 1.10,2013-04-15 13:38:00,
2013-04-15 10:24:00,60.5,51.0,29.89,SSW,203,12.0,19.0,72,0.00,,,0.00,weatherlink.com 1.10,2013-04-15 14:24:00,
2013-04-15 10:39:00,59.9,51.0,29.89,SSW,198,8.0,17.0,73,0.00,,,0.00,weatherlink.com 1.10,2013-04-15 14:39:00,
2013-04-15 10:54:00,59.2,51.0,29.89,SSW,201,14.0,17.0,74,0.00,,,0.00,weatherlink.com 1.10,2013-04-15 14:54:00,
2013-04-15 11:09:00,58.9,51.0,29.90,SSE,152,6.0,15.0,75,0.00,,,0.00,weatherlink.com 1.10,2013-04-15 15:09:00,
2013-04-15 11:24:00,59.0,51.0,29.89,SSE,148,10.0,18.0,75,0.00,,,0.00,weatherlink.com 1.10,2013-04-15 15:24:00,
2013-04-15 11:39:00,59.6,52.0,29.89,SE,128,12.0,17.0,75,0.00,,,0.00,weatherlink.com 1.10,2013-04-15 15:39:00,
2013-04-15 11:54:00,60.2,52.0,29.90,SSE,148,10.0,17.0,74,0.00,,,0.00,weatherlink.com 1.10,2013-04-15 15:54:00,
2013-04-15 12:09:00,60.6,52.0,29.90,SSE,149,10.0,19.0,74,0.00,,,0.00,weatherlink.com 1.10,2013-04-15 16:09:00,
2013-04-15 12:24:00,61.1,53.0,29.90,SE,146,8.0,18.0,75,0.00,,,0.00,weatherlink.com 1.10,2013-04-15 16:24:00,
2013-04-15 12:39:00,60.9,53.0,29.89,SSE,160,14.0,17.0,75,0.00,,,0.00,weatherlink.com 1.10,2013-04-15 16:39:00,
2013-04-15 12:54:00,60.9,53.0,29.88,SSW,203,15.0,21.0,75,0.00,,,0.00,weatherlink.com 1.10,2013-04-15 16:54:00,
2013-04-15 13:09:00,61.6,54.0,29.88,SSE,149,7.0,17.0,76,0.00,,,0.00,weatherlink.com 1.10,2013-04-15 17:09:00,
2013-04-15 13:24:00,61.5,54.0,29.89,SE,144,7.0,16.0,76,0.00,,,0.00,weatherlink.com 1.10,2013-04-15 17:24:00,
2013-04-15 13:39:00,61.7,54.0,29.88,SSE,158,9.0,14.0,77,0.00,,,0.00,weatherlink.com 1.10,2013-04-15 17:39:00,
2013-04-15 13:54:00,62.1,54.0,29.89,South,170,12.0,16.0,76,0.00,,,0.00,weatherlink.com 1.10,2013-04-15 17:54:00,
2013-04-15 14:09:00,62.2,55.0,29.89,SSW,212,8.0,18.0,77,0.00,,,0.00,weatherlink.com 1.10,2013-04-15 18:09:00,
2013-04-15 14:24:00,62.2,55.0,29.88,South,180,7.0,21.0,77,0.00,,,0.00,weatherlink.com 1.10,2013-04-15 18:24:00,
2013-04-15 14:39:00,62.5,55.0,29.88,SE,145,8.0,16.0,76,0.00,,,0.00,weatherlink.com 1.10,2013-04-15 18:39:00,
2013-04-15 14:54:00,62.8,56.0,29.86,SE,145,8.0,13.0,77,0.00,,,0.00,weatherlink.com 1.10,2013-04-15 18:54:00,
2013-04-15 15:09:00,63.1,55.0,29.86,SSE,167,10.0,15.0,76,0.00,,,0.00,weatherlink.com 1.10,2013-04-15 19:09:00,
2013-04-15 15:24:00,62.9,55.0,29.86,SSE,153,10.0,15.0,76,0.00,,,0.00,weatherlink.com 1.10,2013-04-15 19:24:00,
2013-04-15 15:39:00,63.2,56.0,29.84,SSE,152,6.0,18.0,76,0.00,,,0.00,weatherlink.com 1.10,2013-04-15 19:39:00,
2013-04-15 16:10:00,64.2,56.0,29.84,South,170,10.0,19.0,74,0.00,,,0.00,weatherlink.com 1.10,2013-04-15 20:10:00,
2013-04-15 16:25:00,64.0,56.0,29.86,SSW,198,8.0,22.0,75,0.00,,,0.00,weatherlink.com 1.10,2013-04-15 20:25:00,
2013-04-15 16:40:00,63.5,56.0,29.87,SSE,166,11.0,19.0,76,0.00,,,0.00,weatherlink.com 1.10,2013-04-15 20:40:00,
2013-04-15 16:55:00,63.1,55.0,29.85,SSW,195,9.0,19.0,76,0.00,,,0.00,weatherlink.com 1.10,2013-04-15 20:55:00,
2013-04-15 17:10:00,63.7,56.0,29.85,South,181,9.0,18.0,75,0.00,,,0.00,weatherlink.com 1.10,2013-04-15 21:10:00,
2013-04-15 17:25:00,64.0,56.0,29.84,SSE,165,7.0,18.0,75,0.00,,,0.00,weatherlink.com 1.10,2013-04-15 21:25:00,
2013-04-15 17:40:00,63.6,56.0,29.85,South,170,8.0,14.0,75,0.00,,,0.00,weatherlink.com 1.10,2013-04-15 21:40:00,
2013-04-15 17:55:00,63.3,56.0,29.86,South,186,8.0,13.0,76,0.00,,,0.00,weatherlink.com 1.10,2013-04-15 21:55:00,
2013-04-15 18:10:00,63.1,55.0,29.86,South,172,5.0,11.0,76,0.00,,,0.00,weatherlink.com 1.10,2013-04-15 22:10:00,
2013-04-15 18:25:00,62.9,56.0,29.86,SW,218,4.0,9.0,78,0.00,,,0.00,weatherlink.com 1.10,2013-04-15 22:25:00,
2013-04-15 18:40:00,62.9,56.0,29.86,SW,229,9.0,12.0,77,0.00,,,0.00,weatherlink.com 1.10,2013-04-15 22:40:00,
2013-04-15 18:55:00,63.1,56.0,29.87,South,176,4.0,9.0,77,0.00,,,0.00,weatherlink.com 1.10,2013-04-15 22:55:00,
2013-04-15 19:10:00,63.0,56.0,29.87,SW,223,7.0,11.0,77,0.00,,,0.00,weatherlink.com 1.10,2013-04-15 23:10:00,
2013-04-15 19:25:00,62.8,56.0,29.87,SSW,213,6.0,8.0,78,0.00,,,0.00,weatherlink.com 1.10,2013-04-15 23:25:00,
2013-04-15 19:40:00,62.6,56.0,29.87,WSW,238,4.0,8.0,78,0.00,,,0.00,weatherlink.com 1.10,2013-04-15 23:40:00,
2013-04-15 19:55:00,62.1,56.0,29.87,SW,226,0.0,3.0,79,0.00,,,0.00,weatherlink.com 1.10,2013-04-15 23:55:00,
2013-04-15 20:10:00,61.3,55.0,29.87,SSW,194,0.0,2.0,81,0.00,,,0.00,weatherlink.com 1.10,2013-04-16 00:10:00,
2013-04-15 20:25:00,60.8,55.0,29.89,SW,221,1.0,3.0,82,0.00,,,0.00,weatherlink.com 1.10,2013-04-16 00:25:00,
2013-04-15 20:40:00,60.8,56.0,29.88,SE,125,1.0,2.0,83,0.00,,,0.00,weatherlink.com 1.10,2013-04-16 00:40:00,
2013-04-15 20:55:00,60.5,55.0,29.87,ESE,113,0.0,1.0,83,0.00,,,0.00,weatherlink.com 1.10,2013-04-16 00:55:00,
2013-04-15 21:10:00,60.0,55.0,29.88,ESE,113,0.0,0.0,84,0.00,,,0.00,weatherlink.com 1.10,2013-04-16 01:10:00,
2013-04-15 21:25:00,59.7,55.0,29.87,ESE,113,0.0,0.0,85,0.00,,,0.00,weatherlink.com 1.10,2013-04-16 01:25:00,
2013-04-15 21:40:00,59.4,55.0,29.87,ESE,123,0.0,0.0,86,0.00,,,0.00,weatherlink.com 1.10,2013-04-16 01:40:00,
2013-04-15 21:55:00,59.5,55.0,29.88,ESE,120,2.0,3.0,86,0.00,,,0.00,weatherlink.com 1.10,2013-04-16 01:55:00,
2013-04-15 22:10:00,59.8,55.0,29.88,SE,133,0.0,6.0,85,0.00,,,0.00,weatherlink.com 1.10,2013-04-16 02:10:00,
2013-04-15 22:25:00,59.9,55.0,29.86,SSE,157,2.0,4.0,85,0.00,,,0.00,weatherlink.com 1.10,2013-04-16 02:25:00,
2013-04-15 22:40:00,59.6,55.0,29.87,SE,129,2.0,6.0,85,0.00,,,0.00,weatherlink.com 1.10,2013-04-16 02:40:00,
2013-04-15 22:55:00,59.8,55.0,29.88,SE,132,1.0,5.0,85,0.00,,,0.00,weatherlink.com 1.10,2013-04-16 02:55:00,
2013-04-15 23:10:00,60.1,55.0,29.88,SSE,155,1.0,5.0,84,0.00,,,0.00,weatherlink.com 1.10,2013-04-16 03:10:00,
2013-04-15 23:25:00,60.0,56.0,29.87,SSW,197,0.0,4.0,85,0.00,,,0.00,weatherlink.com 1.10,2013-04-16 03:25:00,
2013-04-15 23:40:00,59.6,56.0,29.87,South,174,0.0,2.0,86,0.00,,,0.00,weatherlink.com 1.10,2013-04-16 03:40:00,
2013-04-15 23:55:00,59.5,55.0,29.89,West,274,3.0,5.0,86,0.00,,,0.00,weatherlink.com 1.10,2013-04-16 03:55:00,